Wetbulb
63.37 66.53 74.40 74.22 73.37 72.51 71.74 70.46 69.72 69.22 68.74 68.10 67.38 66.82 66.26 65.54 65.01 64.69 64.50 64.56 64.53 64.45 64.54 64.84 65.55 66.00 66.32 66.64 66.83 66.95 67.57 68.48 69.83 70.39 72.25 73.28 73.31 73.84 75.05 74.94 75.07 75.24 75.55
65.50 66.91 74.48 74.20 73.50 72.53 72.37 71.46 71.12 70.81 70.17 68.71 67.89 67.35 66.60 66.23 65.62 65.67 65.88 65.80 65.80 66.10 66.05 65.91 65.93 66.17 66.43 67.24 67.17 67.07 67.35 67.65 68.66 69.72 70.32 72.51 72.77 74.11 74.65 74.61 74.50 74.98 75.68
64.58 67.70 73.36 74.30 73.75 73.17 72.69 72.24 71.95 71.49 70.81 69.99 68.93 68.28 67.63 67.39 67.05 67.07 67.23 67.41 67.51 67.62 67.67 67.61 67.25 67.03 66.81 66.94 67.42 67.34 67.64 67.60 67.76 69.15 69.36 72.98 73.48 73.52 74.44 74.64 74.94 75.19 74.98
65.79 70.26 71.27 74.55 73.98 73.67 73.13 72.81 72.29 71.94 71.19 70.66 69.95 68.92 68.28 68.20 67.96 67.76 68.17 68.15 68.10 68.27 68.15 68.92 68.69 68.58 67.89 67.24 67.64 67.91 67.86 67.59 67.62 68.26 69.14 70.55 72.76 72.49 73.90 74.72 74.49 75.29 74.85
66.83 70.50 72.45 74.43 73.93 73.83 73.68 73.21 72.89 72.44 71.87 71.12 70.09 69.69 69.42 69.49 69.65 69.61 68.91 68.99 68.60 68.72 68.69 69.59 69.54 68.96 68.93 68.36 68.11 69.24 67.79 67.49 68.00 68.02 68.72 69.83 72.28 72.20 73.55 74.43 74.23 74.63 74.33
67.12 70.50 72.00 74.30 74.05 73.88 73.80 73.41 73.13 72.84 72.29 71.65 70.76 70.53 70.33 70.39 70.55 70.58 69.67 69.74 69.25 69.28 69.27 69.57 68.96 69.62 69.67 69.32 69.05 69.60 68.86 67.78 67.68 67.97 68.92 69.40 70.50 72.02 72.61 73.80 73.78 73.81 73.21
66.96 70.13 71.49 74.28 74.17 74.10 73.98 73.71 73.31 72.96 72.51 72.17 71.70 71.06 70.89 71.23 70.49 70.12 70.10 69.48 69.44 69.25 69.27 69.16 69.42 69.87 70.15 69.33 69.44 69.50 68.95 68.07 68.28 68.61 69.00 69.33 69.26 70.60 71.93 73.18 73.77 73.25 72.62
67.72 69.17 71.58 73.76 74.22 74.02 73.78 73.51 73.41 72.93 72.68 72.56 72.24 71.75 71.55 71.48 70.37 70.03 69.68 69.54 69.33 69.13 69.00 68.89 69.35 69.60 69.55 69.87 68.99 69.11 68.86 68.58 68.68 68.77 68.99 68.74 69.67 70.02 71.59 72.44 73.41 72.71 73.23
69.05 69.23 71.09 72.48 73.95 74.12 73.77 73.35 73.22 73.16 72.74 72.54 72.24 71.89 71.52 70.27 69.59 68.64 67.34 67.24 67.48 67.90 68.17 68.41 68.19 68.97 68.88 68.36 68.60 69.07 68.32 68.63 68.70 68.99 68.12 68.46 69.55 70.27 71.47 72.27 72.81 72.94 72.63
68.74 69.52 70.44 71.97 72.55 72.51 72.60 73.82 73.56 73.35 72.95 72.50 72.57 71.57 70.07 68.54 66.32 66.08 66.43 65.76 65.81 66.27 66.77 66.94 67.72 67.78 68.12 68.66 68.76 68.35 68.14 68.09 68.26 68.62 68.87 68.29 69.15 69.78 70.62 71.95 72.99 73.41 72.84
67.26 69.02 69.98 70.89 72.22 72.13 71.73 72.39 73.47 72.88 72.16 72.12 70.69 69.44 68.18 66.81 66.90 66.07 64.97 65.08 64.76 65.02 65.86 66.26 66.40 66.69 66.77 67.15 67.49 67.98 67.93 67.75 67.62 67.97 68.09 68.62 68.96 69.71 69.82 71.18 72.49 73.18 73.16
66.35 67.55 69.05 70.86 71.33 71.74 71.35 72.42 72.15 71.38 70.36 69.91 69.27 68.02 67.75 68.05 67.21 65.96 65.23 64.77 64.63 65.14 66.00 66.36 67.11 66.55 67.44 66.26 66.46 67.57 67.42 67.42 67.72 66.89 66.97 68.09 68.66 69.20 69.57 70.88 72.12 72.29 72.73
66.84 67.80 68.42 70.19 71.43 71.30 70.95 71.38 71.03 69.83 69.58 69.23 68.12 67.81 67.55 66.53 66.28 65.61 65.15 65.35 65.60 64.57 64.82 65.43 65.54 65.10 66.54 67.01 66.81 66.16 66.51 67.48 67.26 66.81 66.21 67.27 68.08 68.71 69.33 70.57 71.55 72.12 72.51
66.03 67.23 68.76 69.88 70.29 71.37 70.43 69.96 69.29 68.37 67.98 66.89 66.91 67.57 66.89 66.08 65.71 65.06 64.26 64.76 64.61 64.48 64.75 65.44 65.36 65.64 66.27 66.80 66.65 66.45 66.27 66.69 66.72 66.82 65.83 66.88 67.20 68.19 69.25 70.43 71.21 71.80 72.36
65.05 66.33 68.03 69.25 69.82 69.81 69.42 68.46 68.07 67.43 66.41 66.61 66.53 66.70 66.35 65.88 65.39 65.14 64.85 64.69 64.65 64.31 65.01 65.11 65.30 64.84 65.35 66.14 66.34 66.08 65.91 66.26 66.57 66.44 65.49 65.57 66.61 67.32 68.56 70.37 70.66 71.50 71.90
64.05 64.39 66.82 68.13 69.47 68.76 67.70 67.55 66.97 66.95 66.74 66.38 66.04 65.96 66.05 65.44 65.08 64.68 64.47 64.51 64.91 65.26 65.06 64.90 64.44 64.42 64.10 65.26 65.52 66.06 65.88 66.18 66.23 65.45 64.31 66.16 66.20 66.76 68.06 69.81 70.09 70.86 71.43
63.23 63.17 65.16 67.39 68.13 67.29 67.06 66.62 66.07 65.86 66.12 65.75 65.91 66.59 65.92 65.93 65.87 65.51 65.02 64.95 65.95 66.32 65.34 65.08 64.71 64.64 64.04 64.46 64.66 65.22 65.57 66.14 65.13 65.06 65.19 65.94 67.00 66.59 67.56 69.45 69.34 70.10 71.08
62.30 61.31 64.03 65.12 66.12 66.47 66.19 65.73 65.47 65.60 65.74 65.66 65.87 66.05 66.06 66.31 66.32 66.01 65.32 64.84 65.68 65.24 65.21 63.80 63.49 62.73 62.81 63.33 64.17 64.52 64.75 65.10 65.06 65.16 65.54 65.78 67.22 68.18 68.83 68.82 69.63 69.81 70.66
61.28 62.18 62.81 64.57 64.89 65.18 65.76 65.41 65.54 66.06 65.33 65.51 66.00 65.94 66.23 66.07 66.15 65.13 64.92 64.84 65.48 63.97 63.48 63.61 63.11 62.68 61.95 62.43 63.24 64.07 64.00 63.52 64.56 64.58 65.37 67.19 68.33 68.99 69.39 69.46 68.58 68.92 69.50
61.25 63.10 64.21 64.13 64.59 65.04 64.75 64.56 64.73 65.04 65.38 65.95 65.90 65.91 66.39 66.21 65.93 65.37 64.76 64.19 64.40 62.96 62.56 62.67 62.87 62.64 62.58 63.15 62.62 62.57 63.28 63.95 64.56 64.82 66.07 67.08 68.02 68.81 69.59 70.23 70.63 70.11 69.55
61.28 62.26 63.46 63.81 64.47 63.71 63.03 62.63 63.53 63.62 64.83 65.26 65.88 66.67 66.77 66.75 66.13 65.76 64.87 63.56 62.07 61.93 63.07 62.94 62.51 61.53 61.32 62.94 62.00 61.78 62.97 64.75 65.41 65.69 67.63 67.45 67.83 68.74 69.59 70.98 70.35 70.46 70.31
60.53 61.86 63.07 63.70 63.83 64.04 63.95 64.34 65.41 65.54 65.59 66.01 66.77 66.67 66.60 66.19 65.95 65.14 63.38 62.72 62.02 62.30 62.94 62.51 62.06 60.49 61.93 63.02 60.82 60.57 57.44 59.94 64.24 65.60 66.27 67.00 66.07 68.36 69.54 69.02 70.20 70.77 70.69
60.30 61.33 62.62 63.32 63.86 64.46 65.11 64.47 64.89 65.32 65.12 64.76 65.11 65.92 66.04 65.09 64.44 64.91 64.31 63.55 63.63 63.14 62.54 62.41 62.00 61.50 60.80 61.50 63.57 60.81 56.56 54.86 59.44 64.59 64.24 64.15 65.43 67.09 67.74 67.76 69.19 68.39 66.63
60.26 61.93 63.37 63.73 64.24 64.61 65.02 64.75 64.95 63.94 63.49 64.59 65.06 65.13 65.47 64.11 64.42 64.56 64.82 63.77 64.14 63.44 62.67 62.09 62.44 62.64 62.79 60.90 62.60 64.91 64.36 63.24 57.68 57.40 63.81 64.45 64.54 66.49 66.45 66.77 66.22 65.50 67.37
60.84 62.15 63.28 64.04 64.41 64.70 64.99 65.28 64.61 64.67 64.52 65.01 64.76 64.05 64.41 65.18 64.48 63.76 64.33 64.33 64.12 63.14 63.36 62.76 62.62 62.36 64.08 63.14 63.53 62.17 63.66 64.23 63.99 60.85 57.69 61.86 64.18 65.10 65.23 65.82 65.20 65.25 65.16
61.41 62.26 62.85 63.42 63.93 64.41 64.82 65.15 65.86 64.55 63.82 63.09 63.45 63.47 63.71 64.36 64.06 64.36 63.50 64.01 64.18 63.82 63.47 62.94 63.21 63.32 63.28 64.34 64.60 63.93 63.73 62.52 62.54 62.84 59.59 60.56 60.05 62.52 64.90 64.34 64.37 65.47 64.95
MSLP
1010.04 1010.35 1011.28 1011.86 1012.42 1012.93 1013.25 1013.57 1013.85 1014.08 1014.38 1014.67 1014.82 1014.98 1015.13 1015.34 1015.45 1015.51 1015.63 1015.76 1015.88 1015.97 1015.90 1015.94 1016.03 1016.11 1016.13 1016.22 1016.09 1016.00 1016.14 1016.21 1016.05 1016.04 1015.96 1015.90 1016.02 1016.07 1016.14 1016.29 1016.33 1016.08 1016.58
1009.11 1010.15 1010.97 1011.58 1012.10 1012.57 1012.92 1013.22 1013.52 1013.82 1014.21 1014.52 1014.71 1014.93 1015.13 1015.27 1015.42 1015.59 1015.60 1015.56 1015.63 1015.80 1015.90 1015.80 1015.80 1015.97 1016.03 1016.09 1015.99 1015.79 1016.03 1016.14 1016.04 1016.00 1016.03 1015.76 1015.81 1015.91 1016.02 1016.05 1016.19 1016.16 1016.47
1009.03 1009.86 1010.67 1011.20 1011.70 1012.16 1012.54 1012.92 1013.32 1013.67 1013.96 1014.17 1014.50 1014.81 1014.99 1015.10 1015.32 1015.47 1015.55 1015.56 1015.49 1015.51 1015.63 1015.67 1015.73 1015.70 1015.83 1015.87 1015.98 1015.73 1015.83 1015.99 1016.00 1015.90 1015.98 1015.49 1015.44 1015.63 1015.73 1015.89 1016.00 1016.22 1016.40
1008.84 1009.65 1010.05 1010.76 1011.21 1011.81 1012.34 1012.64 1013.07 1013.45 1013.80 1014.05 1014.34 1014.54 1014.81 1014.89 1015.02 1015.16 1015.18 1015.24 1015.31 1015.33 1015.31 1015.52 1015.64 1015.69 1015.58 1015.69 1015.93 1015.66 1015.67 1015.77 1015.83 1015.78 1015.54 1015.47 1015.36 1015.49 1015.42 1015.66 1015.75 1016.02 1016.38
1008.98 1009.37 1009.81 1010.41 1010.84 1011.46 1012.01 1012.47 1012.81 1013.06 1013.40 1013.75 1014.08 1014.34 1014.58 1014.69 1014.75 1014.82 1014.95 1015.03 1015.09 1015.06 1015.02 1015.10 1015.08 1015.26 1015.42 1015.38 1015.63 1015.61 1015.64 1015.68 1015.74 1015.53 1015.40 1015.49 1015.41 1015.25 1015.46 1015.41 1015.71 1016.15 1016.48
1008.95 1009.40 1009.81 1010.39 1010.91 1011.32 1011.69 1012.13 1012.56 1012.88 1013.14 1013.46 1013.79 1014.03 1014.24 1014.38 1014.56 1014.65 1014.69 1014.68 1014.75 1014.76 1014.72 1014.73 1014.70 1014.84 1015.13 1015.18 1015.43 1015.59 1015.31 1015.51 1015.56 1015.09 1015.27 1015.40 1015.52 1015.44 1015.43 1015.37 1015.53 1016.04 1016.61
1008.61 1009.07 1009.75 1010.38 1010.62 1010.96 1011.44 1011.99 1012.42 1012.75 1013.02 1013.26 1013.48 1013.67 1013.89 1014.09 1014.27 1014.36 1014.38 1014.40 1014.32 1014.40 1014.42 1014.44 1014.41 1014.59 1014.77 1014.96 1015.10 1015.07 1015.15 1015.40 1015.12 1014.96 1015.19 1015.29 1015.26 1015.56 1015.41 1015.36 1015.38 1015.99 1016.60
1008.27 1008.87 1009.39 1009.94 1010.61 1010.98 1011.44 1011.84 1012.34 1012.69 1012.98 1013.25 1013.39 1013.53 1013.65 1013.76 1013.96 1014.13 1014.14 1014.12 1014.08 1014.14 1014.11 1014.17 1014.22 1014.43 1014.61 1014.67 1014.81 1014.90 1015.11 1015.18 1014.87 1014.75 1015.03 1015.06 1015.16 1015.49 1015.34 1015.26 1015.24 1015.93 1016.31
1007.96 1008.71 1009.22 1009.53 1010.33 1010.94 1011.24 1011.53 1012.10 1012.50 1012.78 1013.09 1013.28 1013.43 1013.54 1013.66 1013.85 1014.01 1014.08 1014.01 1013.91 1013.91 1013.90 1014.05 1014.21 1014.37 1014.48 1014.61 1014.64 1014.81 1014.85 1015.02 1014.81 1014.58 1014.76 1014.89 1015.07 1015.28 1015.21 1015.16 1015.11 1015.46 1016.21
1008.19 1008.34 1008.75 1009.16 1009.71 1010.39 1010.94 1011.43 1011.76 1012.12 1012.50 1012.88 1013.13 1013.32 1013.55 1013.61 1013.72 1013.85 1013.90 1013.87 1013.79 1013.79 1013.75 1013.82 1013.95 1014.08 1014.18 1014.25 1014.37 1014.51 1014.63 1014.73 1014.53 1014.44 1014.59 1014.49 1015.04 1015.07 1015.10 1015.03 1014.84 1015.11 1015.67
1008.12 1008.41 1008.58 1008.90 1009.32 1009.95 1010.46 1011.00 1011.70 1011.98 1012.28 1012.65 1012.97 1013.19 1013.40 1013.27 1013.40 1013.60 1013.66 1013.80 1013.69 1013.67 1013.66 1013.63 1013.67 1013.74 1013.88 1013.90 1014.04 1014.23 1014.29 1014.07 1014.23 1014.28 1014.19 1014.46 1014.85 1014.94 1014.84 1014.83 1014.69 1014.76 1015.22
1007.16 1007.75 1008.10 1008.66 1009.08 1009.69 1010.28 1010.72 1011.20 1011.59 1011.89 1012.28 1012.59 1012.86 1012.93 1013.19 1013.33 1013.56 1013.60 1013.64 1013.58 1013.46 1013.32 1013.32 1013.36 1013.42 1013.33 1013.08 1013.04 1013.73 1013.79 1013.60 1013.99 1014.02 1013.98 1014.59 1014.67 1014.79 1014.60 1014.55 1014.50 1014.46 1014.91
1006.67 1007.02 1007.69 1008.39 1008.98 1009.62 1010.25 1010.66 1011.08 1011.47 1011.81 1012.19 1012.40 1012.67 1012.80 1013.05 1013.18 1013.32 1013.23 1013.20 1013.20 1013.27 1013.11 1013.03 1012.99 1012.85 1012.79 1012.69 1012.68 1012.87 1012.98 1013.47 1013.50 1013.70 1013.96 1014.45 1014.54 1014.45 1014.44 1014.22 1014.36 1014.25 1014.64
1005.72 1006.54 1007.18 1008.11 1008.83 1009.45 1009.79 1010.24 1010.77 1011.22 1011.64 1011.78 1011.98 1012.40 1012.52 1012.65 1012.86 1013.11 1012.99 1012.98 1013.18 1013.03 1013.04 1012.97 1012.83 1012.88 1012.77 1012.63 1012.58 1012.70 1012.97 1013.11 1013.16 1013.51 1013.73 1014.32 1014.39 1014.32 1014.22 1013.95 1014.13 1013.98 1014.36
1005.42 1006.08 1007.12 1007.58 1007.99 1008.83 1009.71 1010.10 1010.59 1011.03 1011.33 1011.38 1011.73 1011.99 1012.23 1012.36 1012.57 1012.76 1012.83 1012.81 1012.86 1012.71 1012.73 1012.77 1012.80 1012.68 1012.61 1012.57 1012.47 1012.59 1012.77 1013.06 1013.35 1013.60 1013.79 1014.16 1014.29 1014.23 1014.00 1013.73 1013.84 1013.77 1014.11
1004.71 1005.67 1006.60 1006.98 1007.74 1008.78 1009.30 1009.89 1010.39 1010.81 1010.97 1011.29 1011.48 1011.68 1012.01 1012.16 1012.30 1012.45 1012.52 1012.54 1012.41 1012.47 1012.53 1012.64 1012.53 1012.60 1012.48 1012.57 1012.56 1012.57 1012.71 1013.06 1013.30 1013.57 1013.44 1013.42 1013.73 1013.77 1013.68 1013.45 1013.52 1013.64 1013.91
1003.97 1005.19 1006.39 1006.66 1007.29 1008.15 1008.91 1009.65 1010.11 1010.35 1010.82 1011.00 1011.25 1011.55 1011.69 1011.92 1011.98 1012.19 1012.16 1012.15 1012.10 1012.23 1012.36 1012.49 1012.52 1012.49 1012.48 1012.42 1012.32 1012.45 1012.61 1012.86 1013.01 1013.17 1013.19 1013.10 1012.95 1013.30 1013.41 1013.20 1013.21 1013.42 1013.72
1003.81 1004.72 1005.63 1006.64 1007.24 1008.08 1008.81 1009.54 1009.85 1010.09 1010.53 1010.80 1011.03 1011.17 1011.17 1011.38 1011.57 1011.66 1011.66 1011.63 1011.70 1011.91 1012.03 1012.16 1012.25 1012.26 1012.25 1012.21 1012.25 1012.36 1012.43 1012.62 1012.78 1012.82 1012.81 1012.81 1012.65 1012.67 1012.76 1012.89 1013.03 1013.17 1013.29
1003.33 1004.45 1005.47 1006.38 1006.87 1007.67 1008.68 1009.30 1009.74 1010.21 1010.46 1010.65 1010.75 1010.62 1010.69 1010.90 1011.06 1011.27 1011.26 1011.28 1011.53 1011.74 1011.88 1011.99 1012.03 1012.14 1011.94 1011.92 1012.01 1012.17 1012.28 1012.39 1012.50 1012.38 1012.41 1012.43 1012.51 1012.51 1012.37 1012.52 1012.91 1012.96 1013.06
1003.11 1003.82 1004.63 1005.70 1006.55 1007.51 1008.36 1009.17 1009.68 1010.03 1010.26 1010.32 1010.34 1010.24 1010.37 1010.43 1010.65 1010.90 1011.07 1011.29 1011.37 1011.60 1011.76 1011.87 1011.82 1011.83 1011.77 1011.78 1011.78 1011.91 1012.08 1012.22 1012.23 1012.17 1012.26 1012.25 1012.25 1012.26 1012.39 1012.44 1012.62 1012.36 1012.82
1003.06 1003.73 1004.42 1005.55 1006.76 1007.29 1008.01 1008.66 1009.23 1009.46 1009.78 1009.99 1010.04 1010.00 1010.01 1010.14 1010.21 1010.46 1010.75 1010.99 1011.34 1011.40 1011.36 1011.52 1011.49 1011.45 1011.39 1011.50 1011.64 1011.75 1011.99 1012.02 1012.08 1012.14 1012.25 1012.15 1012.12 1012.25 1012.30 1012.34 1012.28 1012.19 1012.33
1002.99 1003.80 1004.39 1005.28 1006.29 1007.09 1007.66 1008.34 1008.74 1009.27 1009.55 1009.63 1009.77 1009.77 1009.71 1009.78 1009.90 1010.17 1010.55 1010.73 1011.05 1011.16 1011.22 1011.27 1011.27 1011.03 1011.14 1011.26 1011.15 1011.24 1011.44 1011.87 1011.88 1012.04 1012.31 1012.30 1012.35 1012.12 1012.16 1012.39 1012.20 1012.20 1012.47
1003.34 1003.91 1004.49 1005.31 1006.27 1006.95 1007.63 1008.37 1008.93 1009.43 1009.52 1009.38 1009.43 1009.49 1009.62 1009.68 1009.84 1009.96 1010.19 1010.45 1010.70 1010.79 1010.65 1010.87 1010.96 1010.84 1010.85 1011.02 1011.02 1010.56 1010.74 1010.41 1011.24 1011.93 1012.23 1012.39 1012.43 1012.26 1012.46 1012.46 1012.48 1012.86 1013.07
1003.85 1004.29 1004.79 1005.52 1006.26 1007.01 1007.73 1008.10 1008.54 1008.75 1008.77 1009.03 1009.19 1009.45 1009.59 1009.63 1009.69 1009.68 1009.90 1010.22 1010.36 1010.47 1010.60 1010.63 1010.71 1010.73 1010.81 1010.61 1010.88 1010.85 1010.53 1010.55 1010.59 1011.77 1012.11 1012.19 1012.47 1012.24 1012.62 1012.86 1013.07 1013.29 1013.85
1003.87 1004.44 1005.09 1005.72 1006.33 1007.09 1007.67 1008.00 1008.30 1008.57 1008.79 1008.97 1009.17 1009.34 1009.55 1009.64 1009.70 1009.77 1009.91 1010.04 1010.20 1010.27 1010.40 1010.51 1010.68 1010.81 1010.67 1010.51 1010.55 1010.66 1010.68 1010.67 1010.65 1010.99 1011.55 1011.95 1012.34 1012.62 1012.92 1013.16 1013.51 1013.91 1014.41
1003.75 1004.48 1005.21 1005.83 1006.53 1007.09 1007.61 1008.01 1008.11 1008.33 1008.59 1008.73 1008.95 1009.13 1009.29 1009.50 1009.81 1009.80 1009.82 1009.90 1010.02 1010.04 1010.10 1010.27 1010.49 1010.63 1010.50 1010.45 1010.46 1010.56 1010.60 1010.54 1010.62 1010.75 1011.23 1011.90 1012.40 1012.83 1013.05 1013.43 1013.83 1014.20 1014.84
Wind_Speed
12 17 20 19 17 16 16 16 15 13 12 11 10 8 7 6 5 3 2 2 1 2 2 3 3 4 4 5 3 2 2 3 3 4 5 4 3 6 8 9 11 12 14
18 19 22 20 19 18 17 17 15 14 13 12 10 9 7 6 4 4 4 4 3 3 4 4 4 5 6 7 5 3 3 2 3 4 4 5 3 8 11 11 12 10 14
20 19 22 22 21 20 19 17 16 15 14 14 12 11 10 9 8 8 7 7 7 6 6 6 6 6 7 8 8 6 5 3 2 4 4 4 5 7 11 12 13 12 16
19 16 21 24 23 21 19 18 17 16 15 14 13 13 12 11 12 12 11 10 9 9 9 8 7 8 7 8 9 8 6 4 3 4 6 5 5 4 11 13 14 14 16
17 17 19 25 23 21 20 18 17 17 16 15 15 13 13 13 13 12 13 13 12 12 12 12 11 9 9 9 10 8 7 7 6 6 6 5 5 4 8 10 13 13 15
17 16 19 23 21 21 20 19 18 18 17 16 15 14 14 14 14 13 14 15 14 14 14 13 12 11 11 10 11 10 7 8 8 7 5 5 7 5 8 10 9 11 12
17 15 16 21 21 21 20 19 18 17 16 16 16 16 15 15 13 14 15 15 16 14 15 15 13 11 11 11 12 11 10 11 10 6 6 6 7 6 9 11 9 11 14
16 16 15 21 20 19 19 18 17 16 15 15 15 14 14 13 12 13 14 14 14 15 16 15 13 12 12 11 12 11 10 11 10 8 7 6 5 8 10 11 10 11 17
15 15 14 17 19 18 18 17 16 15 14 13 13 13 11 8 8 9 10 12 13 14 14 14 14 14 14 12 13 13 10 10 9 6 8 6 5 8 10 11 11 10 20
12 15 15 15 16 16 15 16 16 14 13 11 12 10 9 7 7 8 8 9 11 12 15 17 16 16 16 13 12 12 11 10 11 7 7 6 7 10 10 12 12 12 16
11 13 14 15 15 14 13 13 13 14 12 11 11 10 8 6 5 7 8 9 10 11 12 13 15 15 16 16 15 14 13 8 7 7 5 5 8 11 12 12 13 12 15
17 17 15 14 14 13 10 11 12 10 9 9 8 8 6 5 5 7 9 10 11 12 12 12 13 10 14 10 8 13 8 9 8 6 6 6 9 12 12 13 14 12 15
18 14 16 14 12 13 10 8 6 6 6 6 8 7 6 5 5 5 5 5 5 7 7 7 7 6 7 8 7 7 8 8 6 5 7 7 10 12 12 13 13 11 15
19 18 15 14 12 12 9 8 8 6 6 6 7 8 6 5 6 6 5 6 5 5 6 5 4 5 7 8 8 9 10 8 5 4 6 8 9 12 12 13 13 13 16
19 17 15 16 15 13 10 8 8 7 7 6 6 7 6 7 7 7 7 6 5 6 5 6 5 4 5 7 7 9 10 10 8 5 5 8 10 12 12 12 13 13 17
17 17 17 17 14 12 11 10 7 6 6 6 5 7 8 8 7 7 7 7 7 5 5 5 4 4 5 5 7 8 9 8 7 7 6 6 9 12 12 11 11 11 15
16 14 16 17 16 15 13 10 7 6 6 5 6 8 9 9 9 9 8 7 7 5 7 5 4 4 4 5 7 7 6 6 6 7 7 6 6 9 11 10 10 9 16
13 17 15 13 15 14 11 9 6 5 5 5 6 7 9 10 10 9 8 7 6 5 5 4 5 5 5 6 6 6 6 5 6 7 7 6 5 5 7 7 9 11 14
15 16 15 16 17 15 11 7 6 5 5 6 6 7 8 10 10 9 7 5 6 5 4 5 5 6 6 6 6 6 5 5 6 5 7 7 6 5 4 1 4 5 9
16 17 17 16 17 14 9 6 4 3 5 5 6 6 7 7 8 8 5 6 5 5 5 5 7 6 5 6 5 5 5 5 5 5 5 5 5 5 4 2 3 5 12
15 17 18 18 15 11 9 7 4 4 4 5 5 6 6 6 7 7 6 5 5 6 6 6 6 7 6 5 5 4 3 4 5 3 1 3 3 3 3 1 4 4 5
15 16 18 17 16 11 8 5 3 3 3 3 2 3 4 5 5 6 6 5 6 5 6 6 7 6 5 5 4 5 4 4 3 3 2 1 2 3 1 3 4 6 8
14 17 17 16 15 11 9 6 3 2 3 3 2 1 2 3 4 6 7 5 5 5 5 6 8 8 6 5 6 2 4 4 6 2 4 2 2 3 3 6 7 11 10
12 15 15 14 13 11 9 7 6 4 3 1 0 0 1 2 3 4 5 5 5 4 5 5 6 6 6 6 4 4 0 4 4 4 3 3 3 2 4 6 7 9 12
15 14 13 13 12 11 9 6 6 4 2 2 2 2 3 2 3 4 5 5 5 5 5 5 7 7 5 5 5 4 3 2 3 4 4 4 4 4 4 7 8 8 8
15 14 13 13 11 10 8 7 6 4 4 3 2 2 2 2 2 4 5 4 4 5 6 6 7 7 5 3 4 5 3 1 2 2 5 4 3 3 5 7 9 8 7
Wind_Direction
193 166 170 169 165 167 170 173 173 171 171 172 171 172 168 170 177 187 195 189 207 244 230 236 255 264 257 259 259 263 286 317 350 357 341 341 275 212 191 189 186 184 155
164 170 171 169 170 176 179 180 179 180 180 182 185 188 187 198 223 239 248 259 266 270 274 271 253 250 254 261 250 245 248 276 319 340 326 311 282 220 202 198 194 185 169
160 170 172 172 177 183 184 183 183 185 187 188 192 198 204 210 217 233 247 258 274 279 277 277 270 256 251 254 255 240 237 229 276 306 303 285 275 227 213 205 197 187 177
164 171 177 178 181 185 187 185 185 189 194 195 200 205 212 222 229 236 236 238 244 262 267 262 256 260 254 250 252 249 253 242 253 279 263 275 276 241 230 222 207 192 184
171 173 181 182 183 186 188 189 189 192 196 199 207 215 220 226 232 237 241 243 247 249 259 259 257 254 247 249 254 249 248 255 258 245 256 267 276 243 254 238 221 208 188
175 179 184 185 184 187 190 192 193 195 196 201 210 217 223 231 237 241 247 249 251 253 257 263 271 276 253 241 244 245 242 238 249 239 247 247 268 293 266 250 236 206 178
180 184 186 188 189 190 192 193 196 198 200 205 210 218 227 238 248 249 251 253 258 263 259 259 267 269 275 263 247 246 235 239 253 231 241 250 254 279 270 259 242 193 177
181 187 192 189 192 193 193 193 198 201 204 210 215 223 236 247 243 253 260 267 268 261 260 263 265 271 271 272 262 250 246 233 238 231 242 244 248 267 269 259 250 194 174
184 186 190 190 195 197 195 191 196 203 207 212 219 228 240 246 255 268 273 275 274 273 271 266 263 267 271 270 262 245 242 236 250 233 241 244 225 261 270 264 250 216 188
194 192 192 192 193 199 198 195 193 199 204 212 220 216 221 231 251 261 274 264 277 273 271 265 260 262 263 265 263 248 238 236 238 238 239 250 258 266 271 268 253 228 190
207 203 196 192 193 195 199 198 194 199 201 205 210 210 210 236 254 265 275 266 267 268 265 262 262 263 261 258 249 239 230 233 227 234 243 235 258 267 269 270 262 237 202
204 204 199 194 194 192 194 195 198 203 204 207 210 209 220 232 244 263 266 260 267 265 268 272 278 290 252 244 226 227 227 227 223 233 243 246 262 269 269 269 262 246 207
215 205 201 193 190 191 191 189 192 198 199 205 208 211 220 229 235 250 263 262 265 260 265 266 271 270 271 244 236 234 224 223 228 235 248 254 264 268 270 270 263 244 210
210 212 193 188 180 188 189 185 193 197 202 210 210 217 227 237 237 247 254 254 251 256 261 261 262 274 266 248 239 231 224 225 222 241 248 262 272 270 271 271 262 252 213
223 207 195 182 183 180 182 180 194 200 209 217 218 226 232 240 240 247 246 250 254 253 249 257 249 265 262 245 234 224 218 221 231 253 253 253 264 269 267 270 263 252 217
217 202 193 188 178 170 180 182 191 203 210 218 230 237 225 236 239 249 242 242 245 238 248 252 247 263 259 248 231 218 216 220 232 246 248 262 265 264 265 265 266 255 221
214 188 189 182 174 174 178 184 193 200 213 222 236 233 230 232 236 238 239 240 247 221 230 225 240 239 247 236 235 218 220 221 237 245 249 259 268 235 257 257 262 261 225
199 188 173 180 172 172 173 181 188 192 216 235 242 242 239 237 236 235 236 236 233 230 229 230 227 234 239 234 224 218 209 217 236 239 247 258 245 249 226 245 259 259 225
182 171 172 175 170 165 168 175 181 200 224 241 247 248 246 239 232 228 231 235 209 225 231 236 221 237 230 225 220 207 209 227 237 241 253 245 241 236 245 142 208 243 206
170 167 165 170 162 157 154 155 170 216 241 245 247 245 241 231 219 215 221 225 211 216 217 216 228 215 232 225 211 204 213 229 232 233 246 226 234 239 252 270 202 198 178
171 167 160 153 157 153 153 159 187 220 231 227 235 242 232 220 211 214 219 210 205 216 221 217 225 225 214 197 187 180 172 217 211 214 213 215 234 250 262 202 210 206 174
170 165 154 153 155 161 156 151 152 187 216 251 240 242 222 217 214 214 205 205 201 210 208 210 213 214 214 197 192 162 163 160 152 168 119 177 242 260 246 138 182 156 152
168 161 152 150 156 156 146 135 134 185 218 220 204 195 212 216 208 215 201 194 193 209 217 211 212 208 196 202 217 178 165 184 161 159 120 123 218 201 115 132 132 120 115
160 152 148 147 151 152 154 161 176 206 227 168 199 143 148 168 173 198 194 189 205 204 209 204 203 209 215 191 198 232 193 130 179 162 138 175 183 174 131 120 114 117 131
154 149 147 145 150 152 159 166 179 193 181 152 157 156 140 136 152 167 180 187 193 204 202 198 195 214 221 202 203 179 196 153 164 142 159 172 94 105 127 124 118 119 127
150 147 145 149 153 151 157 170 185 189 161 169 174 186 179 161 130 183 158 166 182 202 206 196 201 208 227 247 206 210 190 146 166 175 139 135 116 98 129 138 128 114 120